This is the latest recevied weather packets stored in our database for station/object KD4WXI. If no packets are shown the sender has not sent any weather packets the latest 10 day(s).
| Time | Temp. | Humidity | Pressure | Rain* | Wind** | Luminosity | Snow |
|---|---|---|---|---|---|---|---|
| 1777569448 | 22.78° C | 53% | 1010.9 hPa | 0 mm | - | 777 W/m² | - |
| 1777569146 | 21.11° C | 61% | 1010.9 hPa | 0 mm | - | 811 W/m² | - |
| 1777568842 | 21.67° C | 57% | 1010.9 hPa | 0 mm | - | 165 W/m² | - |
| 1777568540 | 22.78° C | 54% | 1011.1 hPa | 0 mm | - | 235 W/m² | - |
| 1777568236 | 23.33° C | 55% | 1011.1 hPa | 0 mm | - | 289 W/m² | - |
| 1777567933 | 22.22° C | 60% | 1011.2 hPa | 0 mm | - | 844 W/m² | - |
| 1777567629 | 21.67° C | 58% | 1011.2 hPa | 0 mm | - | 806 W/m² | - |
| 1777567327 | 22.22° C | 53% | 1011.2 hPa | 0 mm | - | 784 W/m² | - |
| 1777567025 | 22.22° C | 56% | 1011.3 hPa | 0 mm | - | 774 W/m² | - |
| 1777566723 | 21.11° C | 56% | 1011.3 hPa | 0 mm | - | 800 W/m² | - |
| 1777566420 | 21.67° C | 56% | 1011.3 hPa | 0 mm | - | 802 W/m² | - |
| 1777566117 | 20.56° C | 56% | 1011.5 hPa | 0 mm | - | 741 W/m² | - |
| 1777565812 | 22.78° C | 54% | 1011.4 hPa | 0 mm | - | 463 W/m² | - |
| 1777565509 | 22.22° C | 54% | 1011.3 hPa | 0 mm | - | 735 W/m² | - |
| 1777565205 | 21.67° C | 57% | 1011.4 hPa | 0 mm | - | 721 W/m² | - |
| 1777564902 | 21.11° C | 56% | 1011.4 hPa | 0 mm | - | 714 W/m² | - |
| 1777564596 | 20.56° C | 54% | 1011.3 hPa | 0 mm | - | 708 W/m² | - |
| 1777564293 | 21.67° C | 59% | 1011.5 hPa | 0 mm | - | 706 W/m² | - |
| 1777563989 | 21.67° C | 59% | 1011.5 hPa | 0 mm | - | 690 W/m² | - |
| 1777563685 | 20° C | 63% | 1011.5 hPa | 0 mm | - | 685 W/m² | - |
| 1777563381 | 20.56° C | 60% | 1011.6 hPa | 0 mm | - | 679 W/m² | - |
| 1777563076 | 20.56° C | 61% | 1011.6 hPa | 0 mm | - | 665 W/m² | - |
| 1777562772 | 20.56° C | 56% | 1011.5 hPa | 0 mm | - | 658 W/m² | - |
| 1777562470 | 20.56° C | 60% | 1011.7 hPa | 0 mm | - | 646 W/m² | - |
| 1777562167 | 19.44° C | 59% | 1011.7 hPa | 0 mm | - | 637 W/m² | - |
* Rain latest hour (hover to see other rain measurements)
** Current wind speed in m/s (hover to see current wind gust speed)